JIA5828 KBHM-KDFW

Flight info

Callsign JIA5828
Flight time 2h 11m
Altitude 34000
Route JOEYE IGB SQS YUYUN BEREE3
Aircraft CRJ9/M-SDFGIRWY/S

Departure

Time 2026-05-09 01:38
Airport Birmingham-Shuttlesworth International Airport (KBHM)

Arrival

Time 2026-05-09 03:50
Airport Dallas Fort Worth International Airport (KDFW)
Time Latitude Longitude Altitude Speed Heading
2026-05-09 00:59 33.56303 -86.75183 633 ft 0 kts 144°
2026-05-09 01:23 33.56306 -86.75186 632 ft 2 kts 143°
2026-05-09 01:24 33.56319 -86.75198 626 ft 2 kts 141°
2026-05-09 01:24 33.56331 -86.75210 623 ft 2 kts 138°
2026-05-09 01:24 33.56343 -86.75224 628 ft 2 kts 132°
2026-05-09 01:24 33.56353 -86.75240 623 ft 2 kts 117°
2026-05-09 01:25 33.56356 -86.75259 627 ft 2 kts 77°
2026-05-09 01:25 33.56352 -86.75270 623 ft 1 kts 58°
2026-05-09 01:25 33.56352 -86.75271 623 ft 0 kts 58°
2026-05-09 01:30 33.56362 -86.75252 632 ft 5 kts 57°
2026-05-09 01:30 33.56390 -86.75202 623 ft 9 kts 55°
2026-05-09 01:30 33.56427 -86.75137 634 ft 9 kts 53°
2026-05-09 01:31 33.56458 -86.75126 637 ft 0 kts 339°
2026-05-09 01:32 33.56469 -86.75131 629 ft 4 kts 338°
2026-05-09 01:32 33.56509 -86.75143 633 ft 7 kts 11°
2026-05-09 01:32 33.56549 -86.75096 626 ft 10 kts 54°
2026-05-09 01:33 33.56590 -86.75021 626 ft 11 kts 65°
2026-05-09 01:33 33.56603 -86.74929 631 ft 11 kts 89°
2026-05-09 01:33 33.56612 -86.74846 635 ft 9 kts 60°
2026-05-09 01:33 33.56643 -86.74787 635 ft 9 kts 55°
2026-05-09 01:34 33.56694 -86.74702 636 ft 16 kts 55°
2026-05-09 01:34 33.56757 -86.74593 639 ft 15 kts 55°
2026-05-09 01:34 33.56814 -86.74492 639 ft 14 kts 55°
2026-05-09 01:34 33.56873 -86.74390 633 ft 16 kts 55°
2026-05-09 01:35 33.56936 -86.74281 636 ft 15 kts 55°
2026-05-09 01:35 33.56996 -86.74177 637 ft 15 kts 55°
2026-05-09 01:35 33.57057 -86.74071 633 ft 15 kts 55°
2026-05-09 01:35 33.57115 -86.73972 635 ft 13 kts 55°
2026-05-09 01:36 33.57162 -86.73890 638 ft 11 kts 55°
2026-05-09 01:36 33.57212 -86.73832 636 ft 9 kts 13°
2026-05-09 01:36 33.57257 -86.73850 641 ft 4 kts 328°
2026-05-09 01:36 33.57268 -86.73858 639 ft 1 kts 327°
2026-05-09 01:37 33.57281 -86.73869 639 ft 5 kts 326°
2026-05-09 01:37 33.57325 -86.73928 639 ft 14 kts 285°
2026-05-09 01:37 33.57251 -86.74087 639 ft 40 kts 234°
2026-05-09 01:37 33.56965 -86.74580 638 ft 107 kts 236°
2026-05-09 01:38 33.56417 -86.75519 633 ft 166 kts 233°
2026-05-09 01:38 33.55677 -86.76794 806 ft 199 kts 235°
2026-05-09 01:38 33.54949 -86.78256 1227 ft 211 kts 243°
2026-05-09 01:38 33.54382 -86.79893 1874 ft 210 kts 250°
2026-05-09 01:39 33.54140 -86.81607 2575 ft 216 kts 262°
2026-05-09 01:39 33.54070 -86.83422 3194 ft 220 kts 264°
2026-05-09 01:39 33.54019 -86.85306 3647 ft 236 kts 265°
2026-05-09 01:39 33.53977 -86.87339 3861 ft 250 kts 266°
2026-05-09 01:40 33.53940 -86.89474 3965 ft 263 kts 266°
2026-05-09 01:40 33.53899 -86.91726 4014 ft 276 kts 266°
2026-05-09 01:40 33.53862 -86.93977 4014 ft 265 kts 266°
2026-05-09 01:40 33.53829 -86.96148 4005 ft 256 kts 266°
2026-05-09 01:41 33.53798 -86.98254 3989 ft 248 kts 264°
2026-05-09 01:41 33.53669 -87.00279 3985 ft 241 kts 264°
2026-05-09 01:41 33.53610 -87.02166 3977 ft 235 kts 265°
2026-05-09 01:41 33.53571 -87.04104 3974 ft 230 kts 266°
2026-05-09 01:42 33.53542 -87.06020 4036 ft 229 kts 266°
2026-05-09 01:42 33.53352 -87.07899 4200 ft 226 kts 255°
2026-05-09 01:42 33.52998 -87.09737 4483 ft 226 kts 254°
2026-05-09 01:42 33.52642 -87.11566 4788 ft 225 kts 255°
2026-05-09 01:43 33.52326 -87.13407 5070 ft 226 kts 257°
2026-05-09 01:43 33.52061 -87.15252 5872 ft 224 kts 258°
2026-05-09 01:43 33.51796 -87.17097 6660 ft 225 kts 258°
2026-05-09 01:43 33.51523 -87.18955 7368 ft 228 kts 259°
2026-05-09 01:44 33.51246 -87.20835 8081 ft 231 kts 259°
2026-05-09 01:44 33.50966 -87.22736 8819 ft 233 kts 260°
2026-05-09 01:44 33.50684 -87.24658 9466 ft 234 kts 260°
2026-05-09 01:44 33.50403 -87.26585 9759 ft 240 kts 261°
2026-05-09 01:45 33.50104 -87.28615 9896 ft 254 kts 261°
2026-05-09 01:45 33.49792 -87.30731 9954 ft 261 kts 261°
2026-05-09 01:45 33.49463 -87.32895 9990 ft 266 kts 261°
2026-05-09 01:45 33.49180 -87.35079 9984 ft 264 kts 266°
2026-05-09 01:46 33.49135 -87.37157 10028 ft 262 kts 271°
2026-05-09 01:46 33.49177 -87.39331 10487 ft 261 kts 271°
2026-05-09 01:46 33.49229 -87.41512 10913 ft 262 kts 271°
2026-05-09 01:46 33.49269 -87.43703 11346 ft 264 kts 271°
2026-05-09 01:47 33.49281 -87.45906 11781 ft 265 kts 270°
2026-05-09 01:47 33.49281 -87.48115 12505 ft 266 kts 270°
2026-05-09 01:47 33.49276 -87.50338 13243 ft 268 kts 270°
2026-05-09 01:47 33.49271 -87.52578 13957 ft 270 kts 270°
2026-05-09 01:48 33.49266 -87.54831 14639 ft 271 kts 270°
2026-05-09 01:48 33.49257 -87.57087 15323 ft 272 kts 270°
2026-05-09 01:48 33.49250 -87.59360 15976 ft 274 kts 270°
2026-05-09 01:48 33.49242 -87.61645 16626 ft 275 kts 270°
2026-05-09 01:49 33.49233 -87.63938 17276 ft 276 kts 270°
2026-05-09 01:49 33.49222 -87.66244 17896 ft 278 kts 270°
2026-05-09 01:49 33.49212 -87.68571 18478 ft 280 kts 270°
2026-05-09 01:49 33.49204 -87.70897 19037 ft 281 kts 270°
2026-05-09 01:50 33.49196 -87.73192 19249 ft 292 kts 270°
2026-05-09 01:50 33.49183 -87.75703 19337 ft 311 kts 269°
2026-05-09 01:50 33.49171 -87.78364 19404 ft 328 kts 270°
2026-05-09 01:50 33.49159 -87.81138 19722 ft 335 kts 269°
2026-05-09 01:51 33.49140 -87.83932 20305 ft 336 kts 269°
2026-05-09 01:51 33.49128 -87.86700 20847 ft 337 kts 269°
2026-05-09 01:51 33.49112 -87.89508 21415 ft 338 kts 269°
2026-05-09 01:51 33.49094 -87.92328 21949 ft 339 kts 269°
2026-05-09 01:52 33.49079 -87.95152 22476 ft 340 kts 269°
2026-05-09 01:52 33.49061 -87.97986 22997 ft 341 kts 268°
2026-05-09 01:52 33.49044 -88.00830 23496 ft 342 kts 268°
2026-05-09 01:52 33.49026 -88.03683 23890 ft 343 kts 268°
2026-05-09 01:53 33.49007 -88.06475 24264 ft 344 kts 268°
2026-05-09 01:53 33.48987 -88.09273 24663 ft 345 kts 267°
2026-05-09 01:53 33.48974 -88.12153 25056 ft 346 kts 267°
2026-05-09 01:53 33.48955 -88.15044 25424 ft 347 kts 267°
2026-05-09 01:54 33.48934 -88.17939 25798 ft 348 kts 266°
2026-05-09 01:54 33.48912 -88.20842 26162 ft 349 kts 266°
2026-05-09 01:54 33.48889 -88.23752 26509 ft 350 kts 266°
2026-05-09 01:54 33.48865 -88.26669 26844 ft 351 kts 266°
2026-05-09 01:55 33.48840 -88.29559 27163 ft 352 kts 266°
2026-05-09 01:55 33.48810 -88.32491 27482 ft 353 kts 266°
2026-05-09 01:55 33.48786 -88.35432 27796 ft 353 kts 266°
2026-05-09 01:55 33.48759 -88.38376 28099 ft 354 kts 266°
2026-05-09 01:56 33.48729 -88.41331 28433 ft 355 kts 266°
2026-05-09 01:56 33.48703 -88.44157 28711 ft 356 kts 265°
2026-05-09 01:56 33.48675 -88.47128 29001 ft 357 kts 265°
2026-05-09 01:56 33.48653 -88.50109 29256 ft 359 kts 265°
2026-05-09 01:57 33.48618 -88.53102 29518 ft 360 kts 265°
2026-05-09 01:57 33.48571 -88.56102 29785 ft 361 kts 264°
2026-05-09 01:57 33.48532 -88.59112 30035 ft 362 kts 265°
2026-05-09 01:57 33.48513 -88.62135 30239 ft 364 kts 265°
2026-05-09 01:58 33.48507 -88.64122 30621 ft 357 kts 265°
2026-05-09 01:58 33.48504 -88.67052 31235 ft 347 kts 265°
2026-05-09 01:58 33.48508 -88.69918 31675 ft 343 kts 265°
2026-05-09 01:58 33.48507 -88.72770 31910 ft 342 kts 264°
2026-05-09 01:59 33.48494 -88.75616 32158 ft 342 kts 264°
2026-05-09 01:59 33.48471 -88.79275 32481 ft 341 kts 264°
2026-05-09 01:59 33.48457 -88.81191 32643 ft 340 kts 264°
2026-05-09 01:59 33.48436 -88.84024 32882 ft 340 kts 264°
2026-05-09 02:00 33.48415 -88.86847 33224 ft 336 kts 264°
2026-05-09 02:00 33.48397 -88.89625 33635 ft 331 kts 263°
2026-05-09 02:00 33.48377 -88.92372 33816 ft 330 kts 263°
2026-05-09 02:00 33.48353 -88.95128 33892 ft 331 kts 263°
2026-05-09 02:01 33.48304 -89.00644 33948 ft 335 kts 263°
2026-05-09 02:01 33.48250 -89.06235 33966 ft 336 kts 263°
2026-05-09 02:02 33.48196 -89.11803 33963 ft 334 kts 263°
2026-05-09 02:02 33.48141 -89.17232 33963 ft 330 kts 263°
2026-05-09 02:03 33.48085 -89.22706 33955 ft 328 kts 263°
2026-05-09 02:03 33.48012 -89.28155 33966 ft 327 kts 264°
2026-05-09 02:04 33.47953 -89.33607 33960 ft 327 kts 264°
2026-05-09 02:04 33.47889 -89.39058 33956 ft 327 kts 264°
2026-05-09 02:05 33.47821 -89.44504 33957 ft 327 kts 263°
2026-05-09 02:05 33.47751 -89.49829 33958 ft 327 kts 264°
2026-05-09 02:06 33.47676 -89.55268 33958 ft 327 kts 264°
2026-05-09 02:07 33.47567 -89.63424 33956 ft 326 kts 263°
2026-05-09 02:07 33.47488 -89.68857 33957 ft 326 kts 263°
2026-05-09 02:08 33.47407 -89.74292 33953 ft 327 kts 263°
2026-05-09 02:08 33.47325 -89.79736 33955 ft 327 kts 263°
2026-05-09 02:09 33.47239 -89.85066 33954 ft 328 kts 263°
2026-05-09 02:09 33.47151 -89.90530 33958 ft 329 kts 263°
2026-05-09 02:10 33.47060 -89.96007 33960 ft 329 kts 263°
2026-05-09 02:10 33.46963 -90.01493 33942 ft 330 kts 263°
2026-05-09 02:11 33.46869 -90.06989 33942 ft 330 kts 263°
2026-05-09 02:11 33.46771 -90.12492 33942 ft 331 kts 263°
2026-05-09 02:12 33.46671 -90.17942 33941 ft 331 kts 263°
2026-05-09 02:12 33.46418 -90.23346 33945 ft 326 kts 255°
2026-05-09 02:13 33.45274 -90.28576 33945 ft 324 kts 252°
2026-05-09 02:13 33.44045 -90.33768 33943 ft 324 kts 251°
2026-05-09 02:14 33.42406 -90.38768 33955 ft 323 kts 245°
2026-05-09 02:14 33.40513 -90.43639 33950 ft 322 kts 245°
2026-05-09 02:15 33.38665 -90.48455 33951 ft 322 kts 246°
2026-05-09 02:15 33.36880 -90.53248 33948 ft 322 kts 246°
2026-05-09 02:16 33.35060 -90.58133 33948 ft 321 kts 246°
2026-05-09 02:16 33.33240 -90.63012 33949 ft 321 kts 246°
2026-05-09 02:17 33.31422 -90.67879 33950 ft 321 kts 246°
2026-05-09 02:17 33.29604 -90.72742 33950 ft 320 kts 246°
2026-05-09 02:18 33.27794 -90.77569 33971 ft 321 kts 246°
2026-05-09 02:18 33.25977 -90.82410 33956 ft 321 kts 246°
2026-05-09 02:19 33.24148 -90.87279 33954 ft 321 kts 246°
2026-05-09 02:19 33.22354 -90.92044 33955 ft 322 kts 246°
2026-05-09 02:20 33.20518 -90.96915 33944 ft 322 kts 246°
2026-05-09 02:20 33.18681 -91.01788 33947 ft 322 kts 246°
2026-05-09 02:21 33.16837 -91.06663 33946 ft 322 kts 246°
2026-05-09 02:21 33.14995 -91.11535 33900 ft 322 kts 246°
2026-05-09 02:22 33.13152 -91.16402 33949 ft 322 kts 246°
2026-05-09 02:22 33.11297 -91.21287 33954 ft 324 kts 246°
2026-05-09 02:23 33.09497 -91.26025 33949 ft 326 kts 246°
2026-05-09 02:23 33.07622 -91.30953 33950 ft 327 kts 246°
2026-05-09 02:24 33.05734 -91.35905 33952 ft 329 kts 246°
2026-05-09 02:24 33.03838 -91.40874 33948 ft 330 kts 246°
2026-05-09 02:25 33.01932 -91.45861 33954 ft 331 kts 246°
2026-05-09 02:25 33.00018 -91.50860 33951 ft 332 kts 246°
2026-05-09 02:26 32.98093 -91.55876 33942 ft 333 kts 246°
2026-05-09 02:26 32.96206 -91.60789 33942 ft 334 kts 246°
2026-05-09 02:27 32.94269 -91.65829 33944 ft 335 kts 246°
2026-05-09 02:27 32.92325 -91.70881 33946 ft 336 kts 246°
2026-05-09 02:28 32.90368 -91.75953 33943 ft 338 kts 246°
2026-05-09 02:28 32.88396 -91.81054 33943 ft 340 kts 246°
2026-05-09 02:29 32.86416 -91.86187 33922 ft 342 kts 246°
2026-05-09 02:29 32.84417 -91.91340 33925 ft 344 kts 246°
2026-05-09 02:30 32.82458 -91.96385 33925 ft 346 kts 246°
2026-05-09 02:30 32.80468 -92.01513 33928 ft 348 kts 246°
2026-05-09 02:31 32.78433 -92.06746 33928 ft 350 kts 246°
2026-05-09 02:31 32.76384 -92.12001 33932 ft 351 kts 246°
2026-05-09 02:32 32.74324 -92.17276 33936 ft 353 kts 246°
2026-05-09 02:32 32.72255 -92.22569 33930 ft 354 kts 246°
2026-05-09 02:33 32.70173 -92.27883 33937 ft 356 kts 246°
2026-05-09 02:33 32.68127 -92.33099 33928 ft 357 kts 246°
2026-05-09 02:34 32.66029 -92.38443 33926 ft 358 kts 246°
2026-05-09 02:34 32.63923 -92.43797 33927 ft 359 kts 246°
2026-05-09 02:35 32.61805 -92.49165 33922 ft 360 kts 246°
2026-05-09 02:35 32.59686 -92.54543 33914 ft 360 kts 246°
2026-05-09 02:36 32.57579 -92.59894 33899 ft 361 kts 245°
2026-05-09 02:36 32.55501 -92.65138 33912 ft 362 kts 246°
2026-05-09 02:37 32.53354 -92.70547 33917 ft 363 kts 246°
2026-05-09 02:37 32.51217 -92.75928 33921 ft 364 kts 246°
2026-05-09 02:38 32.49055 -92.81368 33931 ft 365 kts 246°
2026-05-09 02:38 32.46896 -92.86782 33934 ft 366 kts 246°
2026-05-09 02:39 32.45484 -92.92600 33938 ft 367 kts 256°
2026-05-09 02:39 32.44551 -92.98481 33936 ft 369 kts 261°
2026-05-09 02:40 32.44118 -93.04436 33929 ft 370 kts 263°
2026-05-09 02:40 32.43732 -93.10523 33923 ft 371 kts 262°
2026-05-09 02:41 32.43271 -93.16604 33923 ft 371 kts 262°
2026-05-09 02:41 32.42796 -93.22694 33925 ft 372 kts 262°
2026-05-09 02:42 32.42318 -93.28794 33925 ft 372 kts 262°
2026-05-09 02:42 32.41845 -93.34765 33929 ft 373 kts 262°
2026-05-09 02:43 32.41442 -93.39846 33912 ft 373 kts 262°
2026-05-09 02:43 32.40952 -93.45964 33906 ft 374 kts 262°
2026-05-09 02:44 32.40459 -93.52093 33903 ft 374 kts 262°
2026-05-09 02:44 32.39962 -93.58225 33898 ft 375 kts 262°
2026-05-09 02:45 32.39464 -93.64359 33896 ft 375 kts 262°
2026-05-09 02:45 32.38972 -93.70368 33898 ft 375 kts 262°
2026-05-09 02:46 32.38465 -93.76512 33898 ft 375 kts 262°
2026-05-09 02:46 32.37948 -93.82660 33890 ft 376 kts 262°
2026-05-09 02:47 32.37436 -93.88818 33892 ft 376 kts 262°
2026-05-09 02:47 32.36919 -93.94982 33895 ft 377 kts 262°
2026-05-09 02:48 32.36399 -94.01155 33898 ft 377 kts 262°
2026-05-09 02:48 32.35883 -94.07211 33903 ft 378 kts 262°
2026-05-09 02:49 32.35355 -94.13398 33898 ft 378 kts 262°
2026-05-09 02:49 32.34824 -94.19591 33893 ft 379 kts 262°
2026-05-09 02:50 32.34287 -94.25797 33898 ft 380 kts 262°
2026-05-09 02:50 32.33748 -94.32013 33899 ft 380 kts 262°
2026-05-09 02:51 32.33205 -94.38238 33902 ft 381 kts 262°
2026-05-09 02:51 32.32668 -94.44330 33894 ft 381 kts 262°
2026-05-09 02:52 32.32122 -94.50532 33897 ft 382 kts 262°
2026-05-09 02:52 32.31565 -94.56781 33893 ft 382 kts 262°
2026-05-09 02:53 32.31006 -94.63037 33888 ft 383 kts 262°
2026-05-09 02:53 32.30443 -94.69308 33902 ft 384 kts 262°
2026-05-09 02:54 32.29889 -94.75438 33908 ft 385 kts 262°
2026-05-09 02:54 32.29316 -94.81731 33910 ft 385 kts 262°
2026-05-09 02:55 32.28741 -94.88032 33909 ft 386 kts 262°
2026-05-09 02:55 32.28159 -94.94346 33906 ft 387 kts 262°
2026-05-09 02:56 32.27576 -95.00665 33906 ft 387 kts 261°
2026-05-09 02:56 32.26894 -95.06977 33903 ft 387 kts 261°
2026-05-09 02:57 32.26241 -95.13112 33898 ft 388 kts 261°
2026-05-09 02:57 32.25570 -95.19432 33890 ft 388 kts 261°
2026-05-09 02:58 32.25263 -95.25808 33888 ft 390 kts 266°
2026-05-09 02:58 32.25417 -95.32227 33885 ft 391 kts 268°
2026-05-09 02:59 32.25596 -95.38652 33886 ft 392 kts 268°
2026-05-09 02:59 32.25750 -95.45019 33549 ft 395 kts 268°
2026-05-09 02:59 32.25831 -95.48174 33299 ft 397 kts 268°
2026-05-09 03:00 32.25912 -95.51433 33042 ft 398 kts 268°
2026-05-09 03:00 32.25992 -95.54703 32789 ft 399 kts 268°
2026-05-09 03:00 32.26073 -95.57985 32541 ft 400 kts 268°
2026-05-09 03:00 32.26152 -95.61276 32132 ft 401 kts 268°
2026-05-09 03:01 32.26228 -95.64567 31687 ft 400 kts 269°
2026-05-09 03:01 32.26307 -95.67846 31274 ft 399 kts 269°
2026-05-09 03:01 32.26383 -95.71123 30864 ft 398 kts 269°
2026-05-09 03:01 32.26450 -95.74395 30460 ft 399 kts 269°
2026-05-09 03:02 32.26524 -95.77677 30061 ft 400 kts 269°
2026-05-09 03:02 32.26592 -95.80755 29645 ft 401 kts 269°
2026-05-09 03:02 32.26663 -95.84049 29187 ft 402 kts 269°
2026-05-09 03:02 32.26733 -95.87354 28742 ft 403 kts 270°
2026-05-09 03:03 32.26807 -95.90669 28293 ft 404 kts 270°
2026-05-09 03:03 32.26871 -95.93994 27859 ft 406 kts 270°
2026-05-09 03:03 32.26949 -95.97330 27432 ft 407 kts 270°
2026-05-09 03:03 32.27019 -96.00676 27005 ft 408 kts 270°
2026-05-09 03:04 32.27092 -96.04035 26592 ft 409 kts 270°
2026-05-09 03:04 32.27163 -96.07401 26178 ft 411 kts 270°
2026-05-09 03:04 32.27235 -96.10781 25779 ft 412 kts 270°
2026-05-09 03:04 32.27303 -96.14174 25379 ft 414 kts 270°
2026-05-09 03:05 32.27371 -96.17365 25010 ft 416 kts 270°
2026-05-09 03:05 32.27436 -96.20747 24626 ft 418 kts 271°
2026-05-09 03:05 32.27504 -96.24193 24210 ft 421 kts 271°
2026-05-09 03:05 32.27581 -96.27657 23814 ft 423 kts 272°
2026-05-09 03:06 32.28190 -96.31048 23387 ft 422 kts 292°
2026-05-09 03:06 32.29627 -96.34011 22928 ft 409 kts 301°
2026-05-09 03:06 32.31267 -96.36705 22455 ft 399 kts 307°
2026-05-09 03:06 32.33159 -96.39061 21969 ft 392 kts 316°
2026-05-09 03:07 32.35525 -96.40621 21498 ft 393 kts 340°
2026-05-09 03:07 32.38240 -96.40914 21057 ft 396 kts
2026-05-09 03:07 32.40943 -96.40475 20617 ft 386 kts 356°
2026-05-09 03:07 32.43486 -96.41098 20223 ft 367 kts 330°
2026-05-09 03:08 32.45412 -96.42883 20154 ft 341 kts 304°
2026-05-09 03:08 32.46417 -96.45358 19915 ft 337 kts 280°
2026-05-09 03:08 32.46626 -96.48143 19622 ft 344 kts 274°
2026-05-09 03:08 32.46922 -96.50849 19328 ft 351 kts 280°
2026-05-09 03:09 32.47537 -96.53657 19018 ft 359 kts 287°
2026-05-09 03:09 32.48510 -96.56404 18651 ft 367 kts 301°
2026-05-09 03:09 32.50162 -96.58739 18338 ft 375 kts 313°
2026-05-09 03:09 32.52029 -96.60804 18018 ft 380 kts 316°
2026-05-09 03:10 32.54003 -96.62899 17640 ft 385 kts 315°
2026-05-09 03:10 32.55993 -96.65040 17268 ft 388 kts 315°
2026-05-09 03:10 32.57973 -96.67244 16854 ft 392 kts 314°
2026-05-09 03:10 32.59952 -96.69471 16405 ft 388 kts 314°
2026-05-09 03:11 32.61889 -96.71649 15960 ft 379 kts 314°
2026-05-09 03:11 32.63768 -96.73767 15522 ft 367 kts 314°
2026-05-09 03:11 32.65592 -96.75818 15078 ft 356 kts 314°
2026-05-09 03:11 32.67350 -96.77814 14670 ft 343 kts 313°
2026-05-09 03:12 32.69041 -96.79738 14226 ft 330 kts 313°
2026-05-09 03:12 32.70667 -96.81581 13799 ft 318 kts 313°
2026-05-09 03:12 32.72238 -96.83366 13330 ft 307 kts 313°
2026-05-09 03:12 32.73755 -96.85095 13022 ft 299 kts 313°
2026-05-09 03:13 32.76575 -96.88305 12478 ft 277 kts 314°
2026-05-09 03:13 32.77939 -96.89856 12243 ft 266 kts 314°
2026-05-09 03:13 32.79420 -96.91110 12096 ft 263 kts 339°
2026-05-09 03:14 32.81188 -96.91539 12058 ft 256 kts 350°
2026-05-09 03:14 32.82893 -96.91634 12031 ft 252 kts 357°
2026-05-09 03:14 32.84628 -96.91563 12017 ft 246 kts 359°
2026-05-09 03:14 32.86327 -96.91469 11842 ft 249 kts 358°
2026-05-09 03:15 32.88081 -96.91415 11806 ft 253 kts 357°
2026-05-09 03:15 32.89851 -96.91402 11818 ft 253 kts 356°
2026-05-09 03:15 32.91596 -96.91395 11690 ft 250 kts 356°
2026-05-09 03:15 32.93332 -96.91386 11499 ft 249 kts 356°
2026-05-09 03:16 32.95055 -96.91373 11307 ft 245 kts 356°
2026-05-09 03:16 32.96741 -96.91361 11103 ft 236 kts 356°
2026-05-09 03:16 32.98378 -96.91346 10723 ft 234 kts 356°
2026-05-09 03:16 33.00012 -96.91335 10271 ft 235 kts 357°
2026-05-09 03:17 33.01656 -96.91326 9787 ft 236 kts 357°
2026-05-09 03:17 33.03291 -96.91315 9396 ft 231 kts 357°
2026-05-09 03:17 33.04800 -96.91301 9377 ft 201 kts 357°
2026-05-09 03:17 33.06139 -96.91294 9082 ft 188 kts 357°
2026-05-09 03:18 33.07434 -96.91288 8635 ft 185 kts 357°
2026-05-09 03:18 33.08714 -96.91282 8160 ft 183 kts 357°
2026-05-09 03:18 33.09985 -96.91274 7697 ft 182 kts 358°
2026-05-09 03:18 33.11201 -96.91266 7229 ft 182 kts 358°
2026-05-09 03:19 33.12478 -96.91259 6694 ft 185 kts 358°
2026-05-09 03:19 33.13773 -96.91253 6126 ft 187 kts 359°
2026-05-09 03:19 33.15083 -96.91242 5541 ft 189 kts 358°
2026-05-09 03:19 33.16404 -96.91234 4976 ft 191 kts 358°
2026-05-09 03:20 33.17743 -96.91224 4471 ft 192 kts 358°
2026-05-09 03:20 33.19050 -96.91218 4215 ft 182 kts 358°
2026-05-09 03:20 33.20269 -96.91145 4072 ft 168 kts
2026-05-09 03:20 33.21397 -96.91052 3996 ft 161 kts
2026-05-09 03:21 33.22520 -96.90973 3985 ft 163 kts
2026-05-09 03:21 33.23616 -96.91193 3937 ft 162 kts 323°
2026-05-09 03:21 33.24108 -96.92307 3938 ft 158 kts 265°
2026-05-09 03:21 33.23804 -96.93581 4091 ft 164 kts 251°
2026-05-09 03:22 33.23410 -96.94931 4111 ft 180 kts 248°
2026-05-09 03:22 33.22893 -96.96349 4122 ft 192 kts 245°
2026-05-09 03:22 33.22324 -96.97801 4109 ft 190 kts 244°
2026-05-09 03:22 33.21760 -96.99203 4089 ft 185 kts 244°
2026-05-09 03:23 33.21209 -97.00567 4059 ft 181 kts 243°
2026-05-09 03:23 33.20665 -97.01902 4045 ft 177 kts 244°
2026-05-09 03:23 33.20131 -97.03214 4042 ft 175 kts 244°
2026-05-09 03:23 33.19600 -97.04521 4043 ft 174 kts 244°
2026-05-09 03:24 33.19024 -97.05790 4020 ft 176 kts 232°
2026-05-09 03:24 33.17958 -97.06485 4001 ft 182 kts 188°
2026-05-09 03:24 33.16714 -97.06399 3904 ft 175 kts 175°
2026-05-09 03:24 33.15521 -97.06261 3616 ft 168 kts 176°
2026-05-09 03:25 33.14364 -97.06141 3269 ft 166 kts 176°
2026-05-09 03:25 33.13224 -97.06012 2925 ft 164 kts 175°
2026-05-09 03:25 33.12110 -97.05883 2676 ft 157 kts 174°
2026-05-09 03:25 33.11067 -97.05754 2510 ft 144 kts 173°
2026-05-09 03:26 33.10141 -97.05615 2443 ft 133 kts 172°
2026-05-09 03:26 33.09556 -97.05513 2378 ft 124 kts 171°
2026-05-09 03:26 33.08660 -97.05346 2352 ft 138 kts 171°
2026-05-09 03:26 33.07653 -97.05156 2442 ft 151 kts 171°
2026-05-09 03:27 33.06590 -97.04957 2466 ft 158 kts 171°
2026-05-09 03:27 33.05490 -97.04745 2483 ft 160 kts 171°
2026-05-09 03:27 33.04387 -97.04526 2440 ft 161 kts 170°
2026-05-09 03:27 33.02921 -97.04212 2417 ft 169 kts 169°
2026-05-09 03:28 33.02129 -97.04032 2550 ft 171 kts 170°
2026-05-09 03:28 33.00926 -97.03839 2545 ft 188 kts 182°
2026-05-09 03:28 32.99541 -97.04222 2165 ft 220 kts 192°
2026-05-09 03:28 32.97893 -97.04618 1729 ft 268 kts 189°
2026-05-09 03:29 32.96047 -97.05018 1742 ft 272 kts 189°
2026-05-09 03:29 32.94195 -97.05404 2023 ft 264 kts 187°
2026-05-09 03:29 32.92430 -97.05609 2371 ft 244 kts 185°
2026-05-09 03:29 32.90786 -97.05794 2663 ft 236 kts 186°
2026-05-09 03:30 32.89155 -97.05993 2815 ft 236 kts 186°
2026-05-09 03:30 32.87497 -97.06188 2804 ft 242 kts 186°
2026-05-09 03:30 32.85803 -97.06395 2807 ft 247 kts 186°
2026-05-09 03:30 32.84077 -97.06598 2817 ft 251 kts 186°
2026-05-09 03:31 32.82340 -97.06803 2862 ft 253 kts 186°
2026-05-09 03:31 32.80655 -97.07003 2943 ft 254 kts 186°
2026-05-09 03:31 32.78895 -97.07329 3003 ft 252 kts 199°
2026-05-09 03:31 32.77495 -97.08492 3011 ft 247 kts 231°
2026-05-09 03:32 32.76827 -97.10345 3006 ft 249 kts 262°
2026-05-09 03:32 32.76876 -97.12422 3052 ft 253 kts 274°
2026-05-09 03:32 32.77099 -97.14501 3225 ft 254 kts 277°
2026-05-09 03:32 32.77361 -97.16544 3525 ft 253 kts 277°
2026-05-09 03:33 32.77601 -97.18630 3739 ft 257 kts 274°
2026-05-09 03:33 32.77773 -97.20696 3870 ft 256 kts 274°
2026-05-09 03:33 32.77930 -97.22719 3943 ft 255 kts 273°
2026-05-09 03:33 32.78069 -97.24822 3993 ft 256 kts 271°
2026-05-09 03:34 32.78133 -97.26939 4003 ft 257 kts 270°
2026-05-09 03:34 32.78213 -97.29055 3996 ft 257 kts 278°
2026-05-09 03:34 32.78939 -97.30976 3985 ft 259 kts 309°
2026-05-09 03:34 32.80411 -97.32188 4002 ft 262 kts 340°
2026-05-09 03:35 32.82148 -97.32516 4033 ft 262 kts 356°
2026-05-09 03:35 32.83929 -97.32610 4019 ft 262 kts 357°
2026-05-09 03:35 32.85734 -97.32647 4010 ft 261 kts 359°
2026-05-09 03:35 32.87552 -97.32657 4016 ft 261 kts 360°
2026-05-09 03:36 32.89371 -97.32646 4011 ft 262 kts 360°
2026-05-09 03:36 32.91192 -97.32635 4045 ft 262 kts 359°
2026-05-09 03:36 32.93012 -97.32617 4045 ft 261 kts 359°
2026-05-09 03:36 32.94830 -97.32599 4048 ft 261 kts 359°
2026-05-09 03:37 32.96629 -97.32576 4075 ft 252 kts 359°
2026-05-09 03:37 32.98315 -97.32544 4060 ft 233 kts 359°
2026-05-09 03:37 32.99884 -97.32511 4035 ft 221 kts 360°
2026-05-09 03:37 33.01385 -97.32476 4067 ft 216 kts 360°
2026-05-09 03:38 33.02904 -97.32446 4075 ft 221 kts 359°
2026-05-09 03:38 33.04451 -97.32415 4057 ft 221 kts 359°
2026-05-09 03:38 33.05970 -97.32377 3956 ft 214 kts 359°
2026-05-09 03:38 33.07341 -97.32349 3971 ft 198 kts 359°
2026-05-09 03:39 33.08677 -97.32319 3632 ft 198 kts 359°
2026-05-09 03:39 33.10052 -97.32218 3286 ft 198 kts 12°
2026-05-09 03:39 33.11125 -97.31405 3099 ft 190 kts 53°
2026-05-09 03:39 33.11619 -97.30010 3049 ft 179 kts 76°
2026-05-09 03:40 33.11975 -97.28582 3032 ft 181 kts 76°
2026-05-09 03:40 33.12321 -97.27118 3038 ft 186 kts 77°
2026-05-09 03:40 33.12667 -97.25619 3039 ft 189 kts 77°
2026-05-09 03:40 33.13011 -97.24097 3037 ft 192 kts 77°
2026-05-09 03:41 33.13390 -97.22571 3021 ft 191 kts 72°
2026-05-09 03:41 33.13844 -97.21104 3010 ft 186 kts 72°
2026-05-09 03:41 33.14147 -97.19734 2990 ft 182 kts 90°
2026-05-09 03:41 33.14075 -97.18255 3008 ft 177 kts 96°
2026-05-09 03:42 33.14000 -97.16802 3016 ft 175 kts 96°
2026-05-09 03:42 33.13874 -97.15368 3007 ft 174 kts 108°
2026-05-09 03:42 33.13465 -97.14008 3040 ft 176 kts 113°
2026-05-09 03:42 33.13036 -97.12625 3041 ft 179 kts 114°
2026-05-09 03:43 33.12598 -97.11234 3039 ft 179 kts 114°
2026-05-09 03:43 33.12153 -97.09855 3031 ft 178 kts 114°
2026-05-09 03:43 33.11704 -97.08486 3020 ft 177 kts 114°
2026-05-09 03:43 33.11259 -97.07121 3012 ft 176 kts 114°
2026-05-09 03:44 33.10832 -97.05807 3012 ft 175 kts 114°
2026-05-09 03:44 33.10190 -97.04633 2969 ft 171 kts 146°
2026-05-09 03:44 33.09076 -97.04292 2982 ft 163 kts 185°
2026-05-09 03:44 33.07970 -97.04164 2963 ft 166 kts 158°
2026-05-09 03:45 33.06988 -97.03468 2996 ft 163 kts 152°
2026-05-09 03:45 33.06019 -97.02757 3001 ft 165 kts 156°
2026-05-09 03:45 33.04882 -97.02683 2983 ft 168 kts 198°
2026-05-09 03:45 33.03765 -97.03089 3009 ft 170 kts 199°
2026-05-09 03:46 33.02643 -97.03527 3014 ft 166 kts 199°
2026-05-09 03:46 33.01619 -97.03942 2849 ft 146 kts 199°
2026-05-09 03:46 33.00710 -97.04335 2605 ft 127 kts 200°
2026-05-09 03:46 32.99924 -97.04699 2359 ft 124 kts 200°
2026-05-09 03:47 32.99155 -97.05071 2173 ft 112 kts 200°
2026-05-09 03:47 32.98406 -97.05344 1828 ft 117 kts 190°
2026-05-09 03:47 32.97624 -97.05457 1632 ft 110 kts 180°
2026-05-09 03:47 32.96871 -97.05482 1418 ft 108 kts 179°
2026-05-09 03:48 32.96102 -97.05460 1314 ft 114 kts 178°
2026-05-09 03:48 32.95271 -97.05463 1297 ft 123 kts 179°
2026-05-09 03:48 32.94394 -97.05461 1254 ft 127 kts 178°
2026-05-09 03:48 32.93509 -97.05457 1113 ft 126 kts 180°
2026-05-09 03:49 32.92643 -97.05469 894 ft 129 kts 178°
2026-05-09 03:49 32.91741 -97.05469 739 ft 122 kts 179°
2026-05-09 03:49 32.90983 -97.05470 596 ft 94 kts 180°
2026-05-09 03:49 32.90462 -97.05470 596 ft 61 kts 180°
2026-05-09 03:50 32.90092 -97.05469 596 ft 48 kts 178°
2026-05-09 03:50 32.89864 -97.05446 596 ft 17 kts 179°
2026-05-09 03:50 32.89733 -97.05456 596 ft 20 kts 179°
2026-05-09 03:50 32.89611 -97.05421 596 ft 17 kts 157°
2026-05-09 03:51 32.89513 -97.05356 596 ft 14 kts 148°
2026-05-09 03:51 32.89456 -97.05316 596 ft 0 kts 149°
2026-05-09 03:51 32.89437 -97.05302 596 ft 10 kts 148°
2026-05-09 03:51 32.89399 -97.05236 596 ft 10 kts 98°
2026-05-09 03:52 32.89400 -97.05123 596 ft 17 kts 89°
2026-05-09 03:52 32.89402 -97.04959 596 ft 23 kts 90°
2026-05-09 03:52 32.89404 -97.04788 596 ft 16 kts 78°
2026-05-09 03:52 32.89435 -97.04657 596 ft 12 kts 56°
2026-05-09 03:53 32.89499 -97.04580 596 ft 9 kts 45°
2026-05-09 03:53 32.89519 -97.04556 596 ft 1 kts 45°
2026-05-09 03:53 32.89519 -97.04555 596 ft 0 kts 45°